W7KKE-3 Weather Reports


Display with metric or nautical units.
time (UTC)temp
F
wind
direction
speed
MPH
gust
MPH
rain 1hr
in
rain 24hr
in
rain mn
in
humidity
%
barometer
mb
20140802002035 67 333 14.0 20.0 0.00 0.00 0.00 74 1015.2
20140802001535 67 313 12.0 21.0 0.00 0.00 0.00 74 1015.2
20140802001035 67 337 13.0 21.0 0.00 0.00 0.00 74 1015.2
20140802000535 68 312 10.0 21.0 0.00 0.00 0.00 74 1015.2
20140802000035 67 313 12.0 22.0 0.00 0.00 0.00 74 1015.2
20140801235535 67 324 13.0 22.0 0.00 0.00 0.00 74 1015.4
20140801235036 67 316 13.0 22.0 0.00 0.00 0.00 74 1015.3
20140801234535 68 306 13.0 22.0 0.00 0.00 0.00 74 1015.2
20140801234035 67 310 12.0 22.0 0.00 0.00 0.00 74 1015.4
20140801233535 67 320 12.0 22.0 0.00 0.00 0.00 73 1015.5
20140801233035 68 323 14.0 24.0 0.00 0.00 0.00 73 1015.4
20140801232535 68 302 13.0 24.0 0.00 0.00 0.00 73 1015.5
20140801232035 67 309 14.0 24.0 0.00 0.00 0.00 73 1015.5
20140801231535 68 309 14.0 21.0 0.00 0.00 0.00 74 1015.4
20140801231035 67 287 14.0 20.0 0.00 0.00 0.00 74 1015.5
20140801230535 67 315 12.0 20.0 0.00 0.00 0.00 74 1015.6
20140801230035 67 319 13.0 19.0 0.00 0.00 0.00 74 1015.6
20140801225535 67 306 12.0 26.0 0.00 0.00 0.00 75 1015.7
20140801225035 67 310 15.0 26.0 0.00 0.00 0.00 75 1015.8
20140801224535 66 312 15.0 26.0 0.00 0.00 0.00 75 1015.8
20140801224035 66 315 15.0 26.0 0.00 0.00 0.00 75 1015.8
20140801223535 67 323 16.0 26.0 0.00 0.00 0.00 75 1015.8
20140801223035 67 322 15.0 26.0 0.00 0.00 0.00 75 1015.8
20140801222535 67 319 14.0 22.0 0.00 0.00 0.00 74 1015.8
20140801222035 67 327 16.0 26.0 0.00 0.00 0.00 73 1015.8
20140801221535 67 310 14.0 26.0 0.00 0.00 0.00 73 1015.9
20140801221035 67 316 13.0 26.0 0.00 0.00 0.00 73 1015.9
20140801220535 67 310 15.0 22.0 0.00 0.00 0.00 73 1016.0
20140801220035 67 315 14.0 19.0 0.00 0.00 0.00 73 1016.0
20140801215535 67 317 13.0 27.0 0.00 0.00 0.00 73 1016.1
20140801215035 67 313 14.0 27.0 0.00 0.00 0.00 74 1016.1
20140801214535 67 310 14.0 27.0 0.00 0.00 0.00 74 1016.1
20140801214035 67 317 14.0 23.0 0.00 0.00 0.00 74 1016.0
20140801213535 67 324 15.0 27.0 0.00 0.00 0.00 74 1016.0
20140801213035 67 316 16.0 27.0 0.00 0.00 0.00 74 1016.0
20140801212535 67 316 15.0 27.0 0.00 0.00 0.00 75 1016.1
20140801212035 67 306 16.0 24.0 0.00 0.00 0.00 74 1016.1
20140801211536 66 320 16.0 21.0 0.00 0.00 0.00 75 1016.1
20140801211035 66 310 15.0 26.0 0.00 0.00 0.00 75 1016.1
20140801210535 66 319 14.0 26.0 0.00 0.00 0.00 75 1016.1
20140801210035 67 320 17.0 26.0 0.00 0.00 0.00 74 1016.1
20140801205535 67 324 17.0 25.0 0.00 0.00 0.00 74 1016.1
20140801204036 66 310 15.0 22.0 0.00 0.00 0.00 74 1016.3
20140801203535 67 315 17.0 25.0 0.00 0.00 0.00 74 1016.4
20140801203035 67 313 15.0 25.0 0.00 0.00 0.00 74 1016.4
20140801202535 66 322 16.0 25.0 0.00 0.00 0.00 75 1016.5
20140801202035 67 315 16.0 23.0 0.00 0.00 0.00 74 1016.5
20140801201535 66 310 15.0 21.0 0.00 0.00 0.00 74 1016.5
20140801201035 67 313 15.0 27.0 0.00 0.00 0.00 75 1016.5
20140801195535 67 317 17.0 22.0 0.00 0.00 0.00 74 1016.5
20140801195035 67 301 14.0 25.0 0.00 0.00 0.00 75 1016.6
20140801194535 67 324 13.0 25.0 0.00 0.00 0.00 75 1016.6
20140801194035 66 320 15.0 25.0 0.00 0.00 0.00 75 1016.5
20140801192534 67 305 16.0 22.0 0.00 0.00 0.00 74 1016.3
20140801192035 66 324 14.0 23.0 0.00 0.00 0.00 74 1016.4
20140801190035 68 306 14.0 22.0 0.00 0.00 0.00 71 1016.4
20140801185535 68 327 13.0 22.0 0.00 0.00 0.00 70 1016.4
20140801185035 68 310 12.0 21.0 0.00 0.00 0.00 71 1016.4
20140801183535 68 295 14.0 21.0 0.00 0.00 0.00 71 1016.4
20140801181534 68 288 14.0 19.0 0.00 0.00 0.00 71 1016.3
20140801181035 68 305 15.0 19.0 0.00 0.00 0.00 70 1016.4
20140801180534 68 309 11.0 19.0 0.00 0.00 0.00 70 1016.5
20140801175034 67 308 11.0 19.0 0.00 0.00 0.00 71 1016.5
20140801174535 67 312 13.0 19.0 0.00 0.00 0.00 71 1016.6
20140801174034 67 319 11.0 19.0 0.00 0.00 0.00 72 1016.6
20140801172534 66 306 9.0 18.0 0.00 0.00 0.00 73 1016.5
20140801172034 66 312 11.0 18.0 0.00 0.00 0.00 74 1016.6
20140801171535 65 319 12.0 18.0 0.00 0.00 0.00 74 1016.6
20140801170034 63 322 9.0 17.0 0.00 0.00 0.00 77 1016.6
20140801164035 63 305 12.0 14.0 0.00 0.00 0.00 79 1016.6
20140801163536 63 310 9.0 14.0 0.00 0.00 0.00 78 1016.6
20140801163034 63 330 9.0 13.0 0.00 0.00 0.00 78 1016.8
20140801162535 63 302 8.0 13.0 0.00 0.00 0.00 79 1016.9
20140801162034 62 312 9.0 12.0 0.00 0.00 0.00 78 1016.9
20140801161534 62 316 9.0 12.0 0.00 0.00 0.00 79 1016.9
20140801161034 62 308 8.0 12.0 0.00 0.00 0.00 80 1017.0
20140801160535 62 327 8.0 11.0 0.00 0.00 0.00 79 1017.0
20140801160034 62 319 8.0 10.0 0.00 0.00 0.00 79 1017.0
20140801155534 62 312 7.0 13.0 0.00 0.00 0.00 80 1017.0
20140801155034 62 317 0.0 13.0 0.00 0.00 0.00 82 1017.0
20140801154534 61 320 0.0 13.0 0.00 0.00 0.00 83 1017.1
20140801154034 60 312 7.0 13.0 0.00 0.00 0.00 83 1017.2
20140801153534 60 324 7.0 11.0 0.00 0.00 0.00 84 1017.3
20140801153034 60 320 7.0 10.0 0.00 0.00 0.00 85 1017.3
20140801152537 60 315 6.0 9.0 0.00 0.00 0.00 86 1017.3
20140801152034 59 331 6.0 9.0 0.00 0.00 0.00 87 1017.3
20140801151534 59 312 6.0 8.0 0.00 0.00 0.00 87 1017.3
20140801151034 58 333 5.0 8.0 0.00 0.00 0.00 87 1017.3
20140801150535 59 333 4.0 13.0 0.00 0.00 0.00 87 1017.3
20140801150036 59 334 4.0 13.0 0.00 0.00 0.00 87 1017.3
20140801145536 58 341 6.0 13.0 0.00 0.00 0.00 87 1017.2
20140801145034 59 315 6.0 10.0 0.00 0.00 0.00 87 1017.3
20140801144534 59 310 3.0 10.0 0.00 0.00 0.00 87 1017.3
20140801144035 58 336 7.0 9.0 0.00 0.00 0.00 87 1017.3
20140801143534 59 337 5.0 9.0 0.00 0.00 0.00 87 1017.3
20140801143035 59 0 4.0 6.0 0.00 0.00 0.00 87 1017.2
20140801142535 58 337 0.0 9.0 0.00 0.00 0.00 87 1017.2
20140801142034 58 322 5.0 9.0 0.00 0.00 0.00 87 1017.3
20140801141534 58 324 3.0 9.0 0.00 0.00 0.00 88 1017.2
20140801141034 58 313 5.0 11.0 0.00 0.00 0.00 88 1017.1
20140801140534 58 337 7.0 11.0 0.00 0.00 0.00 88 1017.2
20140801140035 57 323 7.0 11.0 0.00 0.00 0.00 88 1017.1
20140801135534 57 310 2.0 11.0 0.00 0.00 0.00 88 1017.2
20140801135034 57 323 7.0 8.0 0.00 0.00 0.00 87 1017.3
20140801134534 57 51 0.0 2.0 0.00 0.00 0.00 87 1017.3
20140801134036 57 64 0.0 4.0 0.00 0.00 0.00 87 1017.2
20140801133535 57 100 0.0 4.0 0.00 0.00 0.00 87 1017.2
20140801133035 57 317 0.0 4.0 0.00 0.00 0.00 87 1017.2
20140801132534 57 0 1.0 1.0 0.00 0.00 0.00 87 1017.2
20140801132034 57 0 0.0 0.0 0.00 0.00 0.00 87 1017.1
20140801131534 57 0 0.0 0.0 0.00 0.00 0.00 87 1017.1
20140801131034 57 0 0.0 0.0 0.00 0.00 0.00 87 1017.1
20140801130534 57 0 0.0 0.0 0.00 0.00 0.00 87 1017.1
20140801130034 57 0 0.0 0.0 0.00 0.00 0.00 87 1017.1
20140801125534 57 0 0.0 0.0 0.00 0.00 0.00 86 1017.0
20140801125034 57 0 0.0 0.0 0.00 0.00 0.00 87 1017.0
20140801124534 57 0 0.0 0.0 0.00 0.00 0.00 86 1016.8
20140801124034 57 0 0.0 0.0 0.00 0.00 0.00 86 1016.8
20140801123534 57 0 0.0 5.0 0.00 0.00 0.00 86 1016.8
20140801123034 57 0 0.0 5.0 0.00 0.00 0.00 86 1016.7
20140801122534 57 93 0.0 5.0 0.00 0.00 0.00 86 1016.6
20140801122034 57 0 0.0 0.0 0.00 0.00 0.00 86 1016.5
20140801121534 57 0 0.0 11.0 0.00 0.00 0.00 86 1016.4
20140801121034 57 348 0.0 11.0 0.00 0.00 0.00 86 1016.4
20140801120534 57 306 5.0 11.0 0.00 0.00 0.00 86 1016.3
20140801120034 57 291 7.0 9.0 0.00 0.00 0.00 86 1016.3
20140801115534 57 288 0.0 9.0 0.00 0.00 0.00 86 1016.5
20140801115034 57 0 2.0 5.0 0.00 0.00 0.00 86 1016.4
20140801114536 57 301 0.0 5.0 0.00 0.00 0.00 86 1016.6
20140801114034 57 0 1.0 6.0 0.00 0.00 0.00 86 1016.7
20140801113534 57 0 0.0 6.0 0.00 0.00 0.00 86 1016.5
20140801113037 57 71 0.0 6.0 0.00 0.00 0.00 86 1016.7
20140801112534 57 84 2.0 5.0 0.00 0.00 0.00 86 1016.8
20140801112034 57 270 0.0 5.0 0.00 0.00 0.00 85 1016.6
20140801111534 57 0 0.0 0.0 0.00 0.00 0.00 85 1016.6
20140801111034 57 0 0.0 0.0 0.00 0.00 0.00 85 1016.6
20140801110534 57 0 0.0 0.0 0.00 0.00 0.00 85 1016.6
20140801110034 57 0 0.0 0.0 0.00 0.00 0.00 85 1016.7
20140801105535 58 88 0.0 5.0 0.00 0.00 0.00 85 1016.8
20140801105034 57 72 0.0 5.0 0.00 0.00 0.00 85 1016.8
20140801104534 57 86 0.0 5.0 0.00 0.00 0.00 85 1016.9
20140801104034 58 0 0.0 0.0 0.00 0.00 0.00 84 1016.9
20140801103534 58 0 0.0 0.0 0.00 0.00 0.00 84 1016.9
20140801103034 58 0 0.0 0.0 0.00 0.00 0.00 84 1016.9
20140801102534 58 0 0.0 0.0 0.00 0.00 0.00 84 1017.1
20140801102034 58 0 0.0 0.0 0.00 0.00 0.00 83 1017.2
20140801101535 58 0 0.0 0.0 0.00 0.00 0.00 83 1017.2
20140801101034 58 0 0.0 0.0 0.00 0.00 0.00 83 1017.3
20140801100534 58 0 0.0 0.0 0.00 0.00 0.00 83 1017.3
20140801100034 59 0 0.0 0.0 0.00 0.00 0.00 83 1017.2
20140801095534 59 0 0.0 0.0 0.00 0.00 0.00 82 1017.2
20140801095034 58 0 0.0 0.0 0.00 0.00 0.00 82 1017.3
20140801094534 59 0 0.0 0.0 0.00 0.00 0.00 82 1017.3
20140801094034 59 0 0.0 2.0 0.00 0.00 0.00 82 1017.4
20140801093534 59 0 0.0 2.0 0.00 0.00 0.00 82 1017.4
20140801093034 59 338 0.0 2.0 0.00 0.00 0.00 82 1017.3
20140801092534 59 177 0.0 7.0 0.00 0.00 0.00 82 1017.4
20140801092034 59 257 1.0 7.0 0.00 0.00 0.00 82 1017.3
20140801091534 59 281 0.0 7.0 0.00 0.00 0.00 82 1017.4
20140801090034 59 285 0.0 5.0 0.00 0.00 0.00 81 1017.7
20140801085534 59 0 0.0 4.0 0.00 0.00 0.00 81 1017.8
20140801085034 59 0 0.0 4.0 0.00 0.00 0.00 81 1018.0
20140801084534 59 331 0.0 4.0 0.00 0.00 0.00 81 1017.9
20140801084034 59 350 0.0 4.0 0.00 0.00 0.00 81 1017.6
20140801083534 59 327 1.0 3.0 0.00 0.00 0.00 81 1017.6
20140801083034 59 86 0.0 6.0 0.00 0.00 0.00 81 1017.7
20140801082534 59 0 0.0 6.0 0.00 0.00 0.00 81 1017.6
20140801082035 59 89 0.0 6.0 0.00 0.00 0.00 80 1017.5
20140801081534 59 42 0.0 3.0 0.00 0.00 0.00 80 1017.5
20140801081034 60 123 0.0 10.0 0.00 0.00 0.00 80 1017.4
20140801080534 60 329 0.0 10.0 0.00 0.00 0.00 80 1017.5
20140801080034 60 331 0.0 10.0 0.00 0.00 0.00 80 1017.4
20140801075534 60 350 4.0 8.0 0.00 0.00 0.00 80 1017.2
20140801073534 60 105 3.0 7.0 0.00 0.00 0.00 78 1017.4
20140801073034 60 113 2.0 7.0 0.00 0.00 0.00 78 1017.4
20140801071534 61 93 0.0 9.0 0.00 0.00 0.00 78 1017.3
20140801071034 60 322 0.0 9.0 0.00 0.00 0.00 78 1017.5
20140801070534 60 341 3.0 20.0 0.00 0.00 0.00 78 1017.4
20140801070034 60 354 0.0 20.0 0.00 0.00 0.00 78 1017.3
20140801065534 61 312 7.0 20.0 0.00 0.00 0.00 78 1017.1
20140801065034 61 319 7.0 14.0 0.00 0.00 0.00 78 1017.1
20140801064534 61 350 6.0 14.0 0.00 0.00 0.00 77 1017.1
20140801064034 60 305 7.0 14.0 0.00 0.00 0.00 77 1017.1
20140801063534 60 337 5.0 16.0 0.00 0.00 0.00 77 1017.2
20140801063035 61 337 3.0 16.0 0.00 0.00 0.00 77 1017.1
20140801062534 61 313 2.0 16.0 0.00 0.00 0.00 76 1017.2
20140801062034 61 334 9.0 15.0 0.00 0.00 0.00 76 1017.0
20140801060034 61 350 4.0 10.0 0.00 0.00 0.00 76 1016.9
20140801055534 61 313 2.0 10.0 0.00 0.00 0.00 75 1017.0
20140801054034 61 341 5.0 14.0 0.00 0.00 0.00 75 1017.1
20140801053534 62 334 7.0 18.0 0.00 0.00 0.00 74 1017.1
20140801053034 62 306 4.0 18.0 0.00 0.00 0.00 74 1017.0
20140801052534 62 336 11.0 18.0 0.00 0.00 0.00 74 1017.0
20140801052034 62 315 12.0 20.0 0.00 0.00 0.00 73 1016.9
20140801051534 62 337 8.0 20.0 0.00 0.00 0.00 73 1017.1
20140801051034 62 324 8.0 20.0 0.00 0.00 0.00 73 1017.0
20140801050534 62 338 10.0 12.0 0.00 0.00 0.00 72 1016.6
20140801050034 62 340 0.0 10.0 0.00 0.00 0.00 72 1016.8
20140801045534 62 322 0.0 10.0 0.00 0.00 0.00 71 1016.7
20140801045034 62 281 2.0 10.0 0.00 0.00 0.00 70 1016.7
20140801044534 63 330 1.0 19.0 0.00 0.00 0.00 70 1016.6
20140801042534 63 326 13.0 22.0 0.00 0.00 0.00 69 1016.1
20140801042035 63 317 13.0 22.0 0.00 0.00 0.00 68 1016.3
20140801041534 62 341 10.0 22.0 0.00 0.00 0.00 68 1016.2
20140801041034 61 322 12.0 20.0 0.00 0.00 0.00 67 1016.1
20140801040534 64 329 13.0 19.0 0.00 0.00 0.00 67 1015.7
20140801040034 64 330 9.0 20.0 0.00 0.00 0.00 67 1016.6
20140801035534 64 324 11.0 20.0 0.00 0.00 0.00 66 1016.4
20140801035034 65 331 13.0 20.0 0.00 0.00 0.00 65 1016.3
20140801034534 65 322 13.0 22.0 0.00 0.00 0.00 64 1016.3
20140801034034 65 320 14.0 22.0 0.00 0.00 0.00 63 1016.3
20140801033534 65 309 12.0 22.0 0.00 0.00 0.00 63 1016.3
20140801033034 66 327 12.0 18.0 0.00 0.00 0.00 63 1016.3
20140801032534 66 312 12.0 18.0 0.00 0.00 0.00 63 1016.3
20140801032034 66 308 14.0 16.0 0.00 0.00 0.00 63 1016.3
20140801031534 66 323 10.0 18.0 0.00 0.00 0.00 63 1016.1
20140801031034 66 320 14.0 18.0 0.00 0.00 0.00 62 1016.1
20140801030534 67 312 11.0 18.0 0.00 0.00 0.00 61 1016.0
20140801030034 67 322 11.0 18.0 0.00 0.00 0.00 60 1016.1
20140801025534 67 316 11.0 18.0 0.00 0.00 0.00 60 1016.1
20140801025034 68 336 11.0 18.0 0.00 0.00 0.00 60 1016.1
20140801024534 68 313 11.0 18.0 0.00 0.00 0.00 59 1016.1
20140801024034 68 308 12.0 16.0 0.00 0.00 0.00 59 1016.0
20140801023534 69 292 7.0 16.0 0.00 0.00 0.00 59 1016.0
20140801023034 68 336 9.0 20.0 0.00 0.00 0.00 59 1016.0
20140801022534 69 338 6.0 20.0 0.00 0.00 0.00 59 1016.0
20140801022034 69 302 12.0 20.0 0.00 0.00 0.00 58 1015.9
20140801021534 70 303 9.0 18.0 0.00 0.00 0.00 58 1016.0
20140801021034 70 313 11.0 16.0 0.00 0.00 0.00 57 1016.1
20140801020534 70 331 8.0 17.0 0.00 0.00 0.00 58 1016.1
20140801020034 70 333 9.0 17.0 0.00 0.00 0.00 58 1016.1
20140801015534 70 291 8.0 17.0 0.00 0.00 0.00 58 1015.9
20140801015034 70 308 9.0 17.0 0.00 0.00 0.00 57 1016.1
20140801014534 70 341 11.0 17.0 0.00 0.00 0.00 57 1016.1
20140801014034 71 308 13.0 15.0 0.00 0.00 0.00 56 1016.0
20140801013534 72 306 9.0 15.0 0.00 0.00 0.00 55 1016.2
20140801013034 72 299 7.0 22.0 0.00 0.00 0.00 55 1016.1
20140801012534 72 316 6.0 22.0 0.00 0.00 0.00 54 1016.1
20140801012034 72 306 7.0 22.0 0.00 0.00 0.00 53 1016.0
20140801011534 71 322 11.0 17.0 0.00 0.00 0.00 53 1015.9
20140801011034 72 323 9.0 13.0 0.00 0.00 0.00 53 1015.9
20140801010534 72 337 5.0 13.0 0.00 0.00 0.00 53 1015.7
20140801010035 72 299 8.0 13.0 0.00 0.00 0.00 52 1015.7
20140801005534 72 309 9.0 23.0 0.00 0.00 0.00 53 1015.8
20140801005034 73 305 9.0 23.0 0.00 0.00 0.00 53 1015.8
20140801004534 73 333 9.0 23.0 0.00 0.00 0.00 52 1015.8
20140801004034 73 308 5.0 18.0 0.00 0.00 0.00 51 1016.1
20140801003534 73 303 10.0 18.0 0.00 0.00 0.00 53 1016.2
20140801003034 73 308 10.0 14.0 0.00 0.00 0.00 53 1016.4
20140801002534 73 301 10.0 28.0 0.00 0.00 0.00 53 1016.3